This demonstration page uses our WeatherBlox Daily Observations layout. Learn more.

39.92423, -83.80882

Hourly Observations for April 11, 2019

Temp ( °F °C ) Dew Point ( °F °C ) Humidity (%) Winds ( mph kmh ) Pressure ( in mb ) Visibility ( mi km ) Precip ( " mm )
12:56 am 00:56 Mostly Cloudy 44 6.7 35 1.7 71 71 ENE 17 28 29.92 1013 10 16.0934 0 0
1:56 am 01:56 Clear 43 6.1 35 1.7 74 74 ENE 18 30 29.92 1013 10 16.0934 0 0
2:56 am 02:56 Clear 42 5.6 35 1.7 76 76 E 17 28 29.91 1013 10 16.0934 0 0
3:56 am 03:56 Clear 42 5.6 35 1.7 76 76 E 16 26 29.9 1012 10 16.0934 0 0
4:56 am 04:56 Clear 42 5.6 35 1.7 76 76 E 15 24 29.88 1012 10 16.0934 0 0
5:56 am 05:56 Clear 41 5 35 1.7 79 79 E 14 22 29.88 1012 10 16.0934 0 0
6:56 am 06:56 Clear 41 5 35 1.7 79 79 E 14 22 29.89 1012 10 16.0934 0 0
7:56 am 07:56 Sunny 43 6.1 36 2.2 76 76 E 16 26 29.9 1013 10 16.0934 0 0
8:56 am 08:56 Sunny 47 8.3 37 2.8 69 69 ESE 21 33 29.89 1012 10 16.0934 0 0
9:56 am 09:56 Sunny 51 10.6 38 3.3 61 61 ESE 12 19 29.89 1012 10 16.0934 0 0
10:56 am 10:56 Sunny 57 13.9 41 5 55 55 SE 15 24 29.88 1012 10 16.0934 0 0
11:56 am 11:56 Sunny 63 17.2 44 6.7 50 50 SE 12 19 29.87 1012 10 16.0934 0 0
12:56 pm 12:56 Sunny 70 21.1 47 8.3 44 44 S 9 15 29.84 1010 10 16.0934 0 0
1:56 pm 13:56 Sunny 76 24.4 51 10.6 42 42 S 14 22 29.8 1009 10 16.0934 0 0
2:56 pm 14:56 Sunny 78 25.6 52 11.1 40 40 SSW 13 20 29.78 1009 10 16.0934 0 0
3:56 pm 15:56 Sunny 80 26.7 54 12.2 41 41 S 17 28 29.76 1008 10 16.0934 0 0
4:56 pm 16:56 Mostly Cloudy 78 25.6 54 12.2 43 43 S 17 28 29.75 1008 10 16.0934 0 0
5:56 pm 17:56 Sunny 79 26.1 54 12.2 42 42 S 17 28 29.75 1007 10 16.0934 0 0
6:56 pm 18:56 Sunny 77 25 54 12.2 45 45 SSE 12 19 29.76 1008 10 16.0934 0 0
7:56 pm 19:56 Sunny 75 23.9 53 11.7 46 46 SSE 12 19 29.76 1008 10 16.0934 0 0
8:56 pm 20:56 Clear 71 21.7 53 11.7 53 53 SSE 10 17 29.76 1008 10 16.0934 0 0
9:56 pm 21:56 Clear 70 21.1 53 11.7 55 55 SSE 9 15 29.77 1008 10 16.0934 0 0
10:56 pm 22:56 Mostly Cloudy 69 20.6 53 11.7 57 57 SSE 9 15 29.76 1008 10 16.0934 0 0
11:56 pm 23:56 Clear 71 21.7 51 10.6 49 49 S 8 13 29.74 1007 10 16.0934 0 0

Powered by AerisWeather